SCP
1 1 1 1 1 1 1 1 1 1 1 1 1 1 1 0 0 0 0 0 0 0 0 0 0 0 0 0 0 0 0 0 0 0 0 0 0 0 0 0 0 0 0
1 1 1 1 1 1 1 1 1 1 1 1 1 1 0 0 0 0 0 0 0 0 0 0 0 0 0 0 0 0 0 0 0 0 0 0 0 0 0 0 0 0 0
0 1 1 1 2 1 1 1 1 1 1 1 1 1 0 0 0 0 0 0 0 0 0 0 0 0 0 0 0 0 0 0 0 0 0 0 0 0 0 0 0 0 0
0 1 1 1 2 2 1 1 1 1 1 1 1 1 0 0 0 0 0 0 0 0 0 0 0 0 0 0 0 0 0 0 0 0 0 0 0 0 0 0 0 0 0
0 1 1 1 2 2 2 2 1 1 1 1 1 0 0 0 0 0 0 0 0 0 0 0 0 0 0 0 0 0 0 0 0 0 0 0 0 0 0 0 0 0 0
0 1 2 2 2 2 2 2 2 2 1 1 1 1 0 0 0 0 0 0 0 0 0 0 0 0 0 0 0 0 0 0 0 0 0 0 0 0 0 0 0 0 0
0 1 2 2 2 2 2 2 2 2 2 2 1 1 0 0 0 0 0 0 0 0 0 0 0 0 0 0 0 0 0 0 0 0 0 0 0 0 0 0 0 0 0
0 1 1 1 1 1 2 2 2 2 2 2 2 1 1 1 0 0 0 0 0 0 0 0 0 0 0 0 0 0 0 0 0 0 0 0 0 0 0 0 0 0 0
1 1 1 1 1 1 1 2 1 1 2 2 2 1 1 1 1 1 0 0 0 0 0 0 0 0 0 0 0 0 0 0 0 0 0 0 0 0 0 0 0 0 0
1 1 1 1 1 1 1 1 1 1 1 2 2 2 2 2 2 1 1 1 0 0 0 0 0 0 0 0 0 0 0 0 0 0 0 0 0 0 0 0 0 0 0
1 1 1 1 1 1 1 1 1 1 1 1 2 2 2 3 2 2 1 1 1 0 0 0 0 0 0 0 0 0 0 0 0 0 0 0 0 0 0 0 0 0 0
1 1 1 1 1 1 1 1 1 1 1 1 1 2 2 3 3 3 2 1 1 1 0 0 0 0 1 1 0 0 0 0 0 0 0 0 0 0 0 0 0 0 0
1 1 1 1 1 1 1 1 1 1 1 1 2 2 2 3 3 3 3 2 1 1 1 1 1 1 1 1 1 0 0 0 0 0 0 0 0 0 0 0 0 0 0
1 1 1 2 2 1 1 1 1 1 1 1 2 2 2 2 3 4 3 2 1 1 1 1 1 1 1 1 1 1 0 0 0 0 0 0 0 0 0 0 0 0 0
1 1 1 1 1 1 1 1 1 1 1 1 1 2 2 2 2 3 3 2 2 1 1 1 1 1 1 1 1 0 0 0 0 0 0 0 0 0 0 0 0 0 0
1 1 1 1 1 1 1 1 1 1 1 1 1 2 2 1 2 2 2 2 2 1 1 1 1 1 1 0 0 0 0 0 0 0 0 0 0 0 0 0 0 0 0
1 1 1 1 1 1 1 1 1 1 1 1 2 2 2 1 1 1 1 2 2 1 1 1 1 1 0 0 0 0 0 0 0 0 0 0 0 0 0 0 0 0 0
1 1 1 1 2 2 2 1 2 2 1 1 2 2 2 1 1 1 1 1 1 1 1 1 1 1 0 0 0 0 0 0 0 0 0 0 0 0 0 0 0 0 0
0 0 1 1 2 2 2 2 2 2 1 2 2 2 2 1 1 1 1 1 1 1 1 1 1 1 1 0 0 0 0 0 1 1 1 0 0 0 0 0 0 0 0
0 0 1 1 2 2 2 2 2 2 2 2 2 2 2 1 1 1 1 1 1 1 1 1 1 1 1 0 0 0 0 1 1 1 1 1 0 0 0 0 0 0 0
0 1 1 2 2 1 1 1 2 2 3 2 2 2 2 2 1 1 1 1 1 1 1 1 1 1 1 1 0 0 1 1 1 1 1 1 0 0 0 0 0 0 0
0 1 1 2 1 1 1 1 1 2 2 3 3 3 2 2 1 1 2 2 2 2 1 1 1 1 1 1 1 0 0 1 1 1 1 1 0 0 0 0 0 0 0
0 1 2 2 1 1 0 0 0 1 1 2 3 3 3 2 2 2 2 3 2 2 2 2 2 1 1 1 1 0 0 0 1 1 1 1 0 0 0 0 0 0 0
1 1 2 1 1 0 0 0 0 1 1 2 2 3 3 3 2 2 3 3 3 3 3 2 2 2 1 1 1 0 0 0 0 1 1 0 0 0 0 0 0 0 0
1 1 1 1 1 0 0 1 1 1 1 2 2 2 2 2 2 2 2 3 3 3 2 2 2 1 1 1 1 0 0 0 0 0 0 0 0 0 0 0 0 0 0
1 1 1 1 1 0 0 1 1 1 1 2 2 2 2 2 2 1 1 2 2 2 1 1 1 1 1 0 0 0 0 0 0 0 0 0 0 0 1 1 0 0 0
Wind_Speed
4 3 4 4 5 6 6 6 6 5 4 3 3 3 2 2 2 2 2 3 2 2 3 2 3 3 3 3 4 4 4 3 2 2 3 3 3 4 3 3 3 4 5
4 4 4 4 5 6 7 7 6 6 5 3 2 2 1 2 2 2 2 2 3 3 2 3 3 3 3 4 4 3 2 2 2 1 1 2 3 3 3 3 3 4 3
5 4 5 5 6 6 7 6 6 6 6 5 3 3 2 2 3 3 2 2 3 3 3 3 3 3 3 3 4 4 4 2 2 1 2 1 1 2 2 3 3 3 3
5 5 5 6 6 6 6 7 7 6 6 6 5 5 4 3 3 2 3 3 3 3 3 3 3 3 3 4 4 4 3 3 2 1 1 2 1 1 2 2 3 3 3
6 6 6 6 6 7 6 6 6 6 6 6 6 6 4 3 2 3 4 4 3 3 3 3 3 3 3 3 3 3 3 2 2 1 1 1 1 2 1 1 2 2 2
5 5 5 5 6 7 7 6 6 6 6 7 7 7 6 5 4 4 4 3 3 3 4 3 3 3 3 3 3 3 3 2 2 2 2 2 2 1 1 2 2 1 2
5 5 5 6 6 7 8 8 8 7 7 8 7 7 6 6 6 5 4 4 3 3 4 3 3 3 3 3 3 3 3 3 2 2 1 1 1 1 1 1 1 1 1
4 4 5 6 6 7 9 9 9 8 8 7 7 6 6 4 4 4 4 4 2 3 4 4 3 3 3 3 3 3 3 2 2 2 1 1 1 0 1 1 2 2 2
3 4 4 5 6 7 9 9 9 9 8 7 7 6 6 5 5 5 4 3 3 3 4 4 4 4 3 3 4 2 3 2 2 1 1 1 1 1 0 1 2 2 2
2 3 4 4 5 5 7 9 9 8 8 7 6 5 6 5 5 5 5 4 4 4 4 4 4 4 4 4 3 2 2 2 2 1 1 1 1 1 1 1 1 2 1
2 2 3 3 4 5 6 7 8 8 7 8 7 6 6 5 5 5 5 4 4 5 5 4 4 4 4 4 3 3 3 3 3 3 2 2 2 1 1 1 1 1 0
1 2 2 3 3 4 6 6 7 7 7 7 6 6 5 5 5 5 5 5 5 5 5 4 4 4 4 4 4 4 3 3 2 2 2 2 2 2 1 1 1 1 1
1 1 1 2 3 4 5 6 6 6 6 6 6 6 6 6 6 5 5 5 5 5 5 5 4 4 4 4 4 4 4 3 2 2 2 2 2 2 2 2 1 1 2
1 1 1 2 2 3 5 5 6 5 6 6 6 6 6 6 5 5 4 5 5 5 5 5 4 4 4 4 4 4 4 3 3 2 2 1 2 2 2 2 2 2 3
1 1 2 1 2 3 4 5 5 5 6 6 7 6 6 5 5 5 4 4 4 4 4 4 4 4 3 3 3 4 4 3 3 3 2 1 2 3 1 0 1 2 2
2 1 2 2 2 3 4 5 5 5 6 6 6 6 6 5 5 5 5 4 4 4 4 4 4 4 2 3 2 2 4 3 3 3 3 3 3 4 4 4 3 2 1
2 2 2 2 2 3 4 5 5 5 5 6 6 6 6 6 5 5 5 5 4 4 4 4 4 4 4 5 4 2 3 3 2 2 3 2 2 3 4 5 5 3 3
2 2 2 2 2 3 3 4 5 5 6 6 5 6 6 6 5 5 5 5 4 4 4 4 4 3 4 6 5 4 4 3 3 2 3 3 3 2 2 4 3 3 3
2 2 2 2 2 2 3 4 5 6 6 6 6 6 6 6 6 6 5 4 4 4 4 4 4 4 5 6 6 5 4 3 3 3 2 3 3 3 1 3 4 4 4
2 2 2 2 2 2 3 4 5 6 6 6 6 6 6 6 6 6 6 5 4 4 4 4 4 4 4 6 6 6 3 4 4 3 3 2 2 4 2 3 3 3 3
2 2 2 2 2 3 3 4 4 5 4 5 5 5 6 6 6 5 5 5 5 4 4 4 4 4 4 6 6 5 3 3 4 4 3 3 5 5 3 2 2 2 1
2 3 3 2 2 3 3 3 3 4 4 4 5 5 5 5 4 5 5 5 5 5 5 4 4 3 3 3 5 5 4 2 3 3 3 4 7 6 5 3 3 3 2
3 3 3 3 3 3 3 3 3 3 4 5 5 5 5 5 5 5 5 5 5 4 4 4 3 3 3 4 5 6 5 3 2 2 3 5 7 6 5 4 5 5 3
3 4 4 4 3 3 3 4 3 4 5 6 6 6 5 5 5 4 4 4 5 5 4 4 4 4 3 4 4 4 4 5 3 3 5 6 5 3 3 5 5 3 2
4 4 4 4 4 4 3 3 4 5 5 6 5 6 5 5 4 4 3 5 5 4 5 5 5 5 5 4 5 4 4 4 4 4 4 4 4 4 4 3 3 3 3
4 4 5 4 5 4 4 4 4 5 6 5 5 4 4 4 4 4 3 1 1 2 3 2 3 3 3 7 7 6 5 5 7 5 4 4 4 4 4 4 4 4 4
Wind_Direction
208 199 200 200 197 197 198 189 184 177 168 169 181 178 172 169 159 157 153 162 163 164 157 174 156 157 156 157 150 138 137 132 125 122 112 98 72 63 62 48 45 57 50
210 195 194 193 198 196 200 197 190 181 173 171 178 177 168 169 147 157 156 169 171 171 170 174 163 164 158 160 156 159 162 154 189 211 175 148 129 86 60 61 51 48 57
223 203 198 197 194 195 195 192 190 182 176 172 169 162 155 177 172 166 160 169 182 173 181 176 177 169 168 168 175 177 187 187 200 267 293 285 88 107 92 64 59 49 43
225 217 207 206 199 195 192 191 188 185 180 181 186 191 192 192 188 181 168 174 179 173 181 179 184 178 178 177 187 185 194 207 206 194 295 321 22 247 147 122 77 58 49
223 219 215 211 206 194 188 192 188 182 183 190 189 203 202 193 178 179 177 180 168 171 182 182 179 182 185 192 189 186 206 213 230 214 196 204 211 249 218 161 139 99 67
218 219 216 207 202 190 185 186 187 182 185 193 193 199 196 193 186 188 183 181 169 175 181 182 187 189 188 185 190 193 200 220 218 233 219 212 221 211 215 195 165 122 82
213 211 211 207 200 193 187 186 185 184 187 194 196 197 197 197 199 193 189 192 182 179 180 179 188 189 183 180 185 195 203 205 206 226 240 246 260 236 235 204 162 141 132
210 209 210 209 202 198 192 189 188 188 186 193 196 197 193 199 200 203 201 195 192 182 179 180 178 180 178 178 181 196 195 201 197 215 218 229 244 235 213 200 182 184 163
211 211 208 205 202 202 195 192 190 188 188 193 193 195 193 192 193 198 200 193 187 177 178 179 180 179 180 185 181 196 186 187 204 206 191 198 147 171 206 212 233 249 216
215 209 207 207 205 203 197 192 194 194 190 192 193 191 194 190 193 197 197 193 183 176 179 183 177 177 177 184 185 186 184 179 162 189 187 155 158 139 195 226 249 272 268
225 207 200 198 199 195 190 190 194 196 193 190 191 188 185 187 189 194 193 191 189 190 192 187 183 180 179 180 178 184 177 180 170 175 175 162 160 162 177 211 226 242 195
224 208 198 186 187 192 185 185 194 196 194 191 188 188 181 185 192 194 194 194 192 194 197 192 189 186 187 189 183 178 180 182 181 177 172 155 145 153 170 184 171 136 148
187 183 181 187 184 190 185 184 190 192 187 186 184 186 188 192 194 195 193 194 194 192 194 191 189 187 188 190 189 180 174 173 176 181 172 156 155 160 153 163 158 140 129
182 178 188 189 190 181 178 179 181 186 182 182 183 189 193 194 195 190 190 191 193 192 192 187 183 185 187 191 191 183 173 169 171 178 177 171 171 176 162 165 162 154 145
195 184 196 202 197 179 175 174 178 183 182 182 184 187 188 185 182 177 182 181 182 190 186 175 177 176 179 189 190 181 176 172 167 164 158 119 75 43 58 151 170 163 163
207 205 210 204 212 192 183 180 184 185 185 187 183 178 179 174 175 176 169 164 170 174 170 176 175 170 160 122 140 197 176 171 171 170 163 149 144 120 106 85 55 19 196
217 225 225 213 214 209 195 189 185 182 185 186 179 174 174 170 177 174 163 163 168 168 170 172 174 177 150 141 150 188 193 174 174 179 165 144 142 164 152 135 133 100 51
226 230 236 233 225 205 195 188 181 184 187 188 184 177 173 173 174 171 170 177 170 168 179 175 175 168 151 147 155 174 189 173 175 179 173 167 158 145 163 148 139 124 109
233 225 239 233 214 185 184 183 182 186 190 193 189 178 176 178 177 175 175 178 174 175 182 178 174 172 162 156 166 187 180 174 171 168 169 171 155 116 188 167 152 141 125
239 236 235 214 186 170 180 185 187 189 193 194 192 181 179 182 184 180 175 171 175 182 178 176 183 180 176 159 175 199 184 178 170 164 156 120 138 137 181 185 172 168 150
239 228 197 194 180 177 188 193 194 198 197 190 188 183 180 186 183 176 172 171 172 174 176 173 177 179 173 161 175 199 200 185 180 172 169 150 142 147 169 211 182 152 172
222 199 187 186 183 189 199 202 204 201 195 188 187 185 181 179 173 169 171 176 171 171 173 175 168 172 164 164 170 182 199 211 191 186 176 150 152 156 168 178 120 131 186
206 185 188 188 190 195 207 209 206 196 193 192 190 189 184 179 177 175 173 177 178 180 180 181 179 174 167 156 157 173 183 196 201 166 121 139 160 165 165 154 156 174 187
209 191 190 195 198 200 214 216 202 195 196 194 191 189 186 181 183 182 183 184 184 185 186 186 189 182 176 174 168 172 169 165 172 160 137 142 153 177 151 157 174 198 195
211 200 204 206 209 206 214 214 201 199 202 198 194 192 186 181 187 187 195 201 197 195 194 195 195 190 193 182 171 179 183 186 180 164 162 166 169 179 183 186 186 191 189
212 210 214 216 217 211 213 210 208 205 205 201 195 194 186 182 186 184 181 153 211 159 184 188 201 193 159 144 156 168 162 155 159 170 178 185 191 194 195 197 199 202 201